Dewpoint
56 57 57 57 57 57 57 57 57 57 58 58 58 58 58 59 58 49 37 51 48 65 59 39 33 33 33 31 27 27 40 42 44 44 43 46 38 46 52 53 54 55 51 55 60
56 56 56 56 57 57 57 57 57 57 57 58 58 58 58 59 51 37 49 64 66 65 35 35 30 30 27 24 22 24 31 36 46 46 45 40 40 48 51 52 52 50 52 55 60
56 56 56 56 56 57 56 57 57 57 57 57 57 57 58 58 37 35 62 61 63 60 37 37 35 31 23 18 19 21 19 28 29 41 46 44 36 44 52 50 51 48 50 52 59
54 55 55 55 55 56 56 56 56 56 55 56 57 58 59 51 30 32 64 61 61 42 31 33 27 18 16 15 16 14 17 17 18 37 42 41 37 49 49 50 52 49 49 50 58
54 54 54 54 54 55 55 55 56 56 55 55 56 58 50 21 15 51 64 61 42 32 33 34 30 14 23 13 15 14 14 13 16 15 25 32 44 46 47 53 52 50 49 47 53
54 53 53 54 54 54 55 55 55 55 55 56 56 59 38 9 16 56 47 43 33 34 32 33 27 19 17 14 9 12 10 11 12 13 22 41 48 47 50 52 51 50 49 48 47
54 54 53 54 54 54 55 55 55 55 55 56 57 55 36 16 37 29 37 32 34 32 34 34 34 25 17 16 15 14 10 11 12 14 23 47 46 46 50 51 50 50 49 49 50
54 54 54 54 54 55 55 55 54 55 55 56 57 51 28 28 32 32 25 23 24 30 34 35 34 23 18 18 16 12 12 10 11 13 16 33 42 44 50 49 49 49 49 49 51
54 54 54 54 55 55 55 54 55 55 56 56 51 42 26 41 37 36 24 22 22 23 33 31 23 19 17 15 14 13 7 9 10 13 16 21 32 42 50 49 48 49 49 50 50
54 54 54 54 55 55 54 54 54 54 55 54 46 35 31 32 35 28 29 24 22 20 17 22 21 19 16 15 10 8 9 16 10 11 10 13 23 43 50 49 49 49 49 50 50
54 54 54 54 55 54 52 39 32 30 39 32 30 34 34 36 35 33 24 21 18 16 14 20 19 18 18 16 17 16 14 12 13 13 12 11 15 41 48 49 49 49 49 50 50
53 54 54 54 54 54 49 35 38 37 30 31 31 33 35 35 31 34 22 17 16 13 18 15 17 20 20 20 17 16 15 14 15 16 13 13 13 34 46 47 48 48 49 49 50
53 53 54 54 54 48 46 41 43 38 29 29 28 27 25 29 31 33 22 20 17 14 15 13 14 20 19 18 17 15 14 15 13 15 14 16 18 30 39 45 47 47 48 48 49
53 53 53 53 47 47 41 44 46 40 28 27 22 23 28 32 30 33 26 22 22 15 17 16 17 17 18 17 16 13 14 14 13 16 10 21 12 23 38 39 46 46 46 46 47
53 53 53 53 45 42 42 46 45 36 17 24 20 23 29 27 23 22 28 21 20 18 17 15 17 19 17 17 16 15 16 13 13 14 14 14 14 16 45 40 44 51 56 52 57
52 53 52 49 45 44 46 45 37 21 18 16 19 20 21 25 24 22 23 21 21 21 21 16 18 18 16 17 17 17 15 14 18 13 11 11 11 11 37 44 50 60 61 63 64
52 52 51 49 40 45 46 38 22 19 23 22 20 21 20 21 21 21 19 20 19 18 18 19 18 18 17 16 17 15 11 10 10 11 12 14 14 12 27 46 56 61 62 62 63
51 50 50 49 48 48 41 28 22 26 24 24 22 20 21 24 22 23 24 25 24 21 18 16 16 16 19 16 13 13 12 12 9 12 10 14 12 25 54 59 61 61 61 62 63
50 48 48 47 46 44 35 29 27 28 28 25 23 23 23 24 24 24 23 25 29 31 29 25 19 24 19 17 15 15 11 12 9 16 15 13 48 55 58 59 60 61 60 61 62
47 48 47 47 44 39 33 32 30 31 30 27 24 25 22 24 24 24 24 25 26 30 31 33 31 29 22 17 18 16 16 13 14 12 10 12 24 48 55 57 59 58 58 61 61
48 42 46 45 42 37 30 32 33 33 32 28 26 25 26 26 26 25 24 25 28 27 27 37 33 31 29 20 19 15 15 14 13 16 12 12 31 52 56 57 58 59 59 60 61
44 39 46 40 33 35 32 33 37 34 35 31 30 30 29 28 27 26 26 29 30 34 30 38 37 34 31 33 32 17 14 15 16 13 20 19 18 54 57 58 59 59 59 60 61
42 43 47 38 31 32 34 35 35 34 34 33 30 31 32 29 26 28 29 30 33 34 41 40 35 33 27 27 22 19 17 17 20 21 23 15 17 55 55 57 59 59 60 61 61
42 39 41 41 38 36 36 35 34 36 35 35 34 33 33 31 28 28 31 34 33 33 46 44 37 34 29 29 31 31 33 29 19 20 17 22 43 52 52 55 58 58 57 61 61
43 39 40 36 36 37 36 36 34 35 36 35 34 35 35 34 34 33 34 35 36 39 40 41 35 35 35 34 34 32 33 33 32 20 19 17 37 51 53 53 54 54 54 59 60
41 40 43 38 38 37 36 35 35 35 36 35 34 38 37 35 35 35 37 37 36 37 39 41 35 35 34 35 34 33 33 32 33 23 22 32 42 50 54 53 53 54 55 56 60
45 45 43 39 37 35 35 37 36 37 37 38 38 37 36 37 39 42 43 43 41 38 37 38 38 36 32 33 33 29 30 31 28 25 28 37 44 52 52 52 52 55 58 57 59
Lifted_Index
12 12 12 12 11 11 10 10 10 10 10 11 11 11 11 10 9 7 6 6 7 8 8 7 6 6 5 4 4 3 2 2 2 2 3 3 3 2 1 1 1 2 2 2 2
12 12 12 12 12 11 11 11 11 11 10 10 10 11 11 10 8 7 6 7 7 8 8 7 6 5 4 3 3 2 2 2 2 2 3 3 3 2 1 1 2 2 3 3 2
13 13 13 13 12 12 11 11 12 12 11 10 10 10 11 10 7 6 7 8 8 9 8 7 6 5 3 2 2 2 2 2 3 4 4 3 3 2 1 1 2 3 3 3 3
14 13 13 13 13 13 12 12 12 12 12 11 10 10 10 9 6 6 7 8 9 9 8 7 6 4 3 2 2 2 2 3 4 5 5 5 3 2 1 1 3 4 4 3 3
14 14 14 14 14 14 13 13 13 13 13 12 11 10 9 8 7 7 7 8 9 8 8 7 6 5 4 3 3 3 3 4 4 5 5 5 4 2 1 1 2 3 4 4 4
15 15 15 15 15 14 14 14 14 13 13 13 12 10 8 7 8 8 8 9 9 8 8 7 6 6 5 4 4 4 3 4 4 4 4 4 3 1 1 1 2 3 4 4 4
16 16 15 15 15 14 14 13 13 13 13 13 12 10 8 8 9 9 9 9 9 8 7 7 7 6 6 5 4 4 3 3 3 3 3 2 2 1 1 1 2 3 3 4 4
16 16 16 15 15 14 13 12 12 12 12 12 11 9 8 8 9 9 9 9 9 8 7 7 7 7 6 5 4 3 3 2 2 2 2 2 2 1 1 1 2 2 3 3 3
17 17 16 16 14 13 11 11 11 11 11 11 10 9 8 8 9 9 10 9 9 8 8 8 7 6 5 4 3 3 2 2 2 2 2 2 2 1 1 1 1 2 2 2 2
17 17 17 15 14 12 11 11 11 11 10 10 9 8 7 8 8 9 10 10 9 8 8 8 7 5 4 4 3 3 2 2 2 2 2 2 2 2 1 0 1 1 1 1 1
17 17 16 14 13 12 12 12 11 10 9 8 8 7 7 8 8 9 9 9 9 8 7 7 6 5 4 4 4 3 3 3 3 3 3 3 3 2 1 0 0 1 1 1 0
17 17 16 13 12 12 12 12 12 10 9 8 8 8 8 8 8 9 9 9 8 7 6 6 5 5 6 6 5 4 3 3 3 3 4 3 3 2 1 1 0 1 1 0 -0
17 17 15 13 12 12 12 12 12 10 9 9 9 9 9 9 9 9 10 9 7 6 6 6 5 6 6 6 5 4 3 2 3 3 3 3 3 2 2 1 1 1 0 -0 -0
16 16 15 13 12 12 12 12 12 10 8 8 9 10 10 9 9 9 10 9 8 7 7 7 6 6 6 6 5 4 4 3 3 3 3 3 2 2 2 2 1 0 -1 -1 -1
15 15 14 13 13 13 12 11 11 8 6 7 9 10 10 9 9 9 10 9 8 8 8 7 7 7 6 6 6 5 5 4 4 3 2 2 2 2 2 2 1 -0 -2 -2 -2
14 14 13 13 13 12 11 10 9 6 5 7 9 9 9 9 9 9 9 9 8 8 8 8 8 7 7 7 7 6 5 4 3 2 1 1 2 2 2 2 1 -1 -3 -3 -3
13 13 12 12 13 12 11 9 7 5 6 8 8 9 8 8 9 9 8 8 8 7 7 7 7 7 7 6 6 6 4 3 2 1 1 1 2 2 1 0 -1 -2 -4 -4 -4
12 12 11 11 12 12 11 8 6 6 8 9 9 9 8 8 8 8 8 7 7 7 6 5 5 6 7 6 6 5 4 2 1 1 1 1 1 0 -0 -1 -2 -3 -4 -4 -4
11 11 10 11 11 11 10 7 6 7 9 9 9 9 8 8 8 8 7 7 7 7 6 4 4 6 7 7 6 5 4 3 2 2 1 1 0 -1 -2 -3 -3 -4 -4 -4 -4
11 10 10 10 11 10 9 8 8 9 10 10 9 9 8 8 8 8 7 7 7 7 6 5 5 6 6 6 6 5 4 3 3 2 1 1 0 -1 -2 -3 -4 -4 -5 -4 -4
10 10 9 10 10 10 9 9 10 10 11 10 10 9 9 9 8 8 7 7 7 7 6 5 5 6 5 5 5 5 4 3 3 2 1 1 0 -1 -2 -3 -4 -4 -4 -4 -4
10 9 9 9 9 9 9 10 10 11 11 11 11 11 10 10 9 8 7 8 8 7 5 5 5 5 5 4 4 4 4 3 3 2 1 1 0 -1 -3 -3 -4 -4 -4 -3 -2
11 10 9 9 9 9 10 10 11 11 11 11 11 11 11 10 9 8 8 8 7 6 5 4 4 4 4 4 4 3 3 3 2 2 1 1 1 -1 -3 -4 -4 -4 -3 -3 -2
11 10 10 10 10 10 10 10 10 10 10 11 11 11 10 10 9 8 8 8 7 6 5 4 4 4 4 4 3 3 3 3 2 2 1 1 1 -1 -3 -4 -4 -4 -3 -3 -3
11 11 10 10 11 11 11 10 10 10 10 10 10 10 10 9 8 8 8 7 6 6 5 4 3 3 3 4 3 3 3 2 2 1 1 1 1 -0 -3 -4 -4 -4 -3 -3 -3
11 11 11 11 11 11 11 11 10 10 10 10 10 10 9 8 7 7 6 6 5 4 3 2 2 2 3 3 3 2 2 2 1 1 1 1 1 -0 -3 -4 -4 -4 -3 -3 -3
12 12 12 12 12 11 11 11 11 11 10 10 10 9 8 8 7 6 6 5 4 3 2 1 1 1 2 2 2 2 2 2 1 2 2 1 1 -1 -3 -4 -4 -4 -3 -3 -3